Regional Weather Roundup
Issued by NWS

Home | Current Version | Previous Version | Graphics & Text | Print | Product List | Glossary On
Versions: 1 2 3 4 5 6 7 8 9 10 11 12 13 14 15 16 17 18 19 20 21 22 23 24 25 26 27 28 29 30 31 32 33 34 35 36 37 38 39 40 41 42 43 44 45 46 47 48 49 50
000
ASUS45 KPSR 221610
RWRAZ

ARIZONA REGIONAL HOURLY WEATHER ROUNDUP
NATIONAL WEATHER SERVICE PHOENIX AZ
900 AM MST WED OCT 22 2014

NOTE: FAIR INDICATES FEW OR NO CLOUDS BELOW 12,000 FEET WITH NO
SIGNIFICANT WEATHER AND/OR OBSTRUCTIONS TO VISIBILITY.

AZZ001>003-036-221700-
NORTHWEST ARIZONA

CITY           SKY/WX    TMP DP  RH WIND       PRES   REMARKS
BULLHEAD CITY  SUNNY     72  41  33 CALM      29.98R
KINGMAN        SUNNY     71  45  39 SE6       30.09R
$$

AZZ004>008-015-016-018-221700-
NORTH CENTRAL ARIZONA

CITY           SKY/WX    TMP DP  RH WIND       PRES   REMARKS
GRAND CANYON   MOSUNNY   57  41  55 SW9       30.25R
PRESCOTT       SUNNY     57  42  57 CALM      30.18R
FLAGSTAFF      SUNNY     55  41  59 NE3       30.27R
PAYSON         SUNNY     63  48  59 VRB3      30.20R
PAGE           PTSUNNY   64  39  39 CALM      30.12R
$$

AZZ009>014-017-221700-
NORTHEAST ARIZONA

CITY           SKY/WX    TMP DP  RH WIND       PRES   REMARKS
WINSLOW        SUNNY     56  46  69 E5        30.19R
SAINT JOHNS    SUNNY     56  45  66 CALM      30.21S
WINDOW ROCK    SUNNY     53  41  63 CALM      30.26
SHOW LOW       SUNNY     57  43  58 SW8       30.26R
$$

AZZ023-221700-
GREATER PHOENIX AREA

CITY           SKY/WX    TMP DP  RH WIND       PRES   REMARKS
PHOENIX        MOSUNNY   77  52  41 E8        29.96R
BUCKEYE          N/A     73  50  43 CALM      29.97R
GLENDALE       SUNNY     73  54  49 CALM      29.98R
LUKE AFB       SUNNY     74  53  48 N3        29.96R
DEER VALLEY    SUNNY     76  50  40 N3        29.97R
SCOTTSDALE     SUNNY     74  52  46 CALM      29.99R
MESA-FALCON    SUNNY     70  52  52 N6        29.97R
MESA-GATEWAY   SUNNY     72  55  56 CALM      29.99R
CHANDLER       SUNNY     70  55  60 CALM      29.97R
$$

AZZ027-028-221700-
SOUTHWEST MARICOPA COUNTY AND PINAL COUNTY

CITY           SKY/WX    TMP DP  RH WIND       PRES   REMARKS
CASA GRANDE    SUNNY     73  52  46 CALM      29.98R
GILA BEND      SUNNY     75  52  43 NE2       29.95R
$$

AZZ503-504-507>509-221700-
SOUTHEAST ARIZONA

CITY           SKY/WX    TMP DP  RH WIND       PRES   REMARKS
TUCSON         SUNNY     69  48  47 SE7       30.04S
DAVIS-MONTHAN  SUNNY     72  51  48 SE8       30.02S
RYAN FIELD       N/A     70  52  52 E6        30.04R
NOGALES        SUNNY     65  32  29 MISG      30.10R
SIERRA VISTA   MOSUNNY   66  48  52 CALM      30.15R
DOUGLAS        SUNNY     67  51  56 NW5       30.12S
SAFFORD        SUNNY     68  52  56 SE10      30.08S
$$

AZZ020-021-025-026-031-221700-
SOUTHWEST ARIZONA

CITY           SKY/WX    TMP DP  RH WIND       PRES   REMARKS
YUMA           NOT AVBL
$$

CAZ031-033-041-043-047-048-061-221700-
SOUTHERN CALIFORNIA

CITY           SKY/WX    TMP DP  RH WIND       PRES   REMARKS
DOWNTOWN L.A.  SUNNY     68  55  63 CALM      29.94R
L.A. AIRPORT   MOSUNNY   67  57  70 E6        29.95R
SAN DIEGO      SUNNY     68  57  68 E3        29.95R
BURBANK        SUNNY     63  46  54 CALM      29.95R
ONTARIO        MOSUNNY   65  50  58 CALM      29.97R
RIVERSIDE      SUNNY     64  51  62 NE3       29.97R
PALM SPRINGS   SUNNY     78  36  21 NW5       29.93R
EL CENTRO NAS  MOSUNNY   73  35  25 SW3       29.89R
IMPERIAL       SUNNY     73  44  35 W3        29.89R
BLYTHE         SUNNY     73  44  35 E5        29.92R
NEEDLES        SUNNY     75  43  31 CALM      29.97R
$$

NVZ020-UTZ003-221700-
SOUTHERN NEVADA-UTAH

CITY           SKY/WX    TMP DP  RH WIND       PRES   REMARKS
LAS VEGAS      MOSUNNY   69  27  20 S7        30.01R
SALT LAKE CITY MOSUNNY   48  34  57 SE5       30.20R
$$

NMZ009-TXZ055-221700-
NEW MEXICO-WEST TEXAS

CITY           SKY/WX    TMP DP  RH WIND       PRES   REMARKS
ALBUQUERQUE    MOSUNNY   58  50  75 S5        30.22R
EL PASO        PTSUNNY   65  57  75 CALM      30.15R
$$


........................KEY........................
SKY/WX - SKY CONDITION/WEATHER
TMP    - TEMPERATURE IN FAHRENHEIT
DP     - DEW POINT IN FAHRENHEIT
RH     - RELATIVE HUMIDITY IN PERCENT
WIND   - DIRECTION AND SPEED IN MILES PER HOUR (MPH)
VRB    - VARIABLE WIND DIRECTION
PRES   - MEAN SEA LEVEL PRESSURE IN INCHES OF MERCURY
         F - FALLING PRESSURE   R - RISING PRESSURE
         S - STEADY PRESSURE
VSB    - VISIBILITY IN MILES
HX     - HEAT INDEX IN FAHRENHEIT
WCI    - WIND CHILL INDEX IN FAHRENHEIT
TC     - TEMPERATURE IN CELSIUS WHICH IS ALSO KNOWN AS
         TEMPERATURE IN CENTIGRADE
AFB    - AIR FORCE BASE
         LUKE AFB IS LUKE AIR FORCE BASE
         DAVIS-MONTHAN IS DAVIS-MONTHAN AIR FORCE BASE
NAS    - NAVAL AIR STATION
         EL CENTRO NAS IS EL CENTRO NAVAL AIR STATION
N/A    - NOT AVAILABLE



USA.gov is the U.S. government's official web portal to all federal, state and local government web resources and services.